STARLINK-37046, 68102

Orbit data source: Space-Track

STARLINK-37046, 68102 is a payload satellite owned by SpaceX/Seattle (US) in SSO that was launched on Sun, 08 Mar 2026 UTC via an FALCON 9 launch vehicle from the Air Force Western Test Range (AFWTR). Payload-class satellites include a variety of spacecraft equipped with specific instruments for various scientific and technological missions. These include communications satellites like Starlink; space stations such as the ISS; scientific satellites like the Hubble; Earth observation satellites from companies like Planet Labs, Umbra, and HawkEye 360; GPS; miniature CubeSats for education and research; and military/defense satellites.

Loading next visibility...
Identifier
68102, 2026-044B
Orbit
SSO
Country
Flag of USUS
Related business
Manufacturer
SpaceX/Seattle
Mission
Operational spacecraft
Bus & Motor
STARLINK V2MO, Unknown motor
Mass
575 kg wet, ~530 kg dry
Launch date (UTC)
2026-03-08 (2 months ago)
Launch vehicle
FALCON 9
Launch site
Air Force Western Test Range (AFWTR)
Object type
Payload
Rocket body
Debris
Shape & HBR
Unknown shape, 17.7 m
Radar Cross Section
RCS unknown

Expand to show TLE details & history
Last TLE update: 11 hours ago

TLE from 11 hours ago
0 STARLINK-37046
1 68102U 26044B   26119.42068794  .00011087  00000-0  34522-3 0  9998
2 68102  97.2851  80.3480 0001698  96.7761 263.3675 15.33446219  9351
Epoch: 2026-04-29T10:05Z
TLE epoch observation values (Epoch: 2026-04-29T10:05:47.438Z)
Latitude
0.00001°
Longitude
71.51844°
Altitude
468.786 km
Speed
7.632 km/s
True Right ascension
05h 21m 23s
True Declination
0° 00' 00"
Sunlit
Object was in daylight at epoch
Visualization orbit readout
Latitude
Unknown
Longitude
Unknown
Altitude
Unknown
Speed
Unknown
Apparent Right ascension
Unknown
Apparent Declination
Unknown
Sunlit
N/A
Visualization observer readout
Local Sidereal Time
04:40:08
Azimuth
Unknown
Elevation
Unknown
Doppler factor
Unknown
Orbital elements
Apogee altitude
463.644 km
Perigee altitude
461.321 km
Semi-major axis
6,840.619 km
Eccentricity
0.00017
Inclination
97.2851°
RAAN
80.348°
Arg. of periapsis
96.7761°
True anomaly
263.34817°
Mean anomaly
263.3675°
Eccentric anomaly
263.35784°
Mean motion
3.83619 °/min
Orbital period
93.84 mins
BSTAR
0.00034522
Loading maneuver chart data...
Computing Atmospheric mass density...
Loading historical data...
Loading historical data...
Loading historical data...
Loading historical data...
Loading historical data...
Loading historical data...
Loading historical data...

Documentation

Showing up to 5 results
|